Location: Drocourt
(49.0571°N, 1.7669°E)
Time: 18:12:37
(UTC+00:00)

Vanguard 2 - Visible Passes

Search period start: 23 April 2024 00:00
Search period end: 03 May 2024 00:00
Orbit: 552 x 2916 km, 32.9° (Epoch: 23 April)

Date Brightness Start Highest point End Pass type
(mag) Time Alt. Az. Time Alt. Az. Time Alt. Az.
23 Apr 10.5 01:53:31 30° SSW 02:00:33 42° SSE 02:16:16 10° ESE visible
23 Apr 10.7 03:55:39 10° WSW 04:11:02 43° S 04:26:03 10° SE visible
24 Apr 10.6 00:05:32 30° SSE 00:05:32 30° SSE 00:18:57 10° E visible
24 Apr 10.5 02:06:37 27° SW 02:14:52 43° S 02:30:47 10° ESE visible
24 Apr 11.3 22:17:32 11° ESE 22:17:32 11° ESE 22:18:25 10° ESE visible
25 Apr 10.4 00:18:38 34° SSE 00:19:24 34° SSE 00:33:46 10° E visible
25 Apr 10.5 02:19:42 24° SW 02:29:12 44° S 02:45:11 10° ESE visible
25 Apr 11.1 22:30:37 15° ESE 22:30:37 15° ESE 22:34:28 10° ESE visible
26 Apr 10.3 00:31:42 36° S 00:33:33 37° SSE 00:48:27 10° ESE visible
26 Apr 10.5 02:32:48 20° WSW 02:43:31 44° S 02:59:30 10° ESE visible
26 Apr 10.9 22:43:42 20° ESE 22:43:42 20° ESE 22:49:52 10° E visible
27 Apr 10.2 00:44:47 37° S 00:47:45 40° SSE 01:03:00 10° ESE visible
27 Apr 10.5 02:45:53 15° WSW 02:57:52 43° S 03:13:41 10° SE visible
27 Apr 10.7 22:56:47 24° SE 22:56:47 24° SE 23:04:54 10° E visible
28 Apr 10.2 00:57:53 35° SSW 01:02:00 41° S 01:17:28 10° ESE visible
28 Apr 10.6 02:58:59 11° WSW 03:12:09 40° SSW 03:27:43 10° SE visible
28 Apr 10.5 23:09:54 28° SE 23:09:54 28° SE 23:19:43 10° E visible
29 Apr 10.2 01:10:59 32° SW 01:16:17 42° S 01:31:50 10° ESE visible
29 Apr 10.6 03:13:06 10° WSW 03:26:25 37° SSW 03:41:36 10° SE visible
29 Apr 10.2 23:23:02 32° SE 23:23:02 32° SE 23:34:23 10° ESE visible
30 Apr 10.3 01:24:08 28° SW 01:30:35 41° S 01:46:05 10° ESE visible
30 Apr 10.7 03:27:47 10° WSW 03:40:39 34° SSW 03:55:15 10° SE visible
30 Apr 10.9 21:35:07 10° ESE 21:35:07 10° ESE 21:35:20 10° ESE visible
30 Apr 10.1 23:36:14 35° SSE 23:36:14 35° SSE 23:48:55 10° ESE visible
01 May 10.3 01:37:20 24° SW 01:44:54 40° S 02:00:12 10° SE visible
01 May 10.8 03:42:35 10° WSW 03:54:49 30° SSW 04:08:36 10° SSE visible
01 May 10.6 21:48:24 14° ESE 21:48:24 14° ESE 21:50:28 10° ESE visible
01 May 9.9 23:49:31 37° S 23:49:41 37° SSE 00:03:21 10° ESE visible
02 May 10.3 01:50:37 20° WSW 01:59:11 38° S 02:14:10 10° SE visible
02 May 10.3 21:48:48 10° SSW 22:01:49 17° ESE 22:05:19 10° ESE visible
